This demonstration page uses our WeatherBlox Daily Observations layout. Learn more.

Left ArrowRight Arrow

Hourly Observations for May 8, 2019

Temp ( °F °C ) Dew Point ( °F °C ) Humidity (%) Winds ( mph kmh ) Pressure ( in mb ) Visibility ( mi km ) Precip ( " mm )
12:15 am 00:15 Cloudy with Mist and Fog 50 10.1 50 10.1 100 100 E 8 13 29.90 1013 3 5 N/A
12:35 am 00:35 Cloudy with Drizzle 50 10.2 50 10.2 100 100 ENE 8 13 29.90 1013 2 3 N/A
12:55 am 00:55 Cloudy with Mist and Fog 51 10.3 51 10.3 100 100 NNE 5 7 29.89 1012 1 2 N/A
1:15 am 01:15 Cloudy with Fog 50 10.2 50 10.2 100 100 N 5 7 29.87 1012 1 1 N/A
1:35 am 01:35 Cloudy with Mist and Fog 50 10.1 50 10.1 100 100 N 6 9 29.86 1011 1 1 N/A
1:55 am 01:55 Cloudy with Mist and Fog 50 10.1 50 10.1 100 100 N 8 13 29.84 1011 1 1 N/A
2:15 am 02:15 Cloudy with Fog 50 10 50 10 100 100 N 8 13 29.83 1010 1 1 N/A
2:35 am 02:35 Cloudy with Mist and Fog 50 10 50 10 100 100 NNE 8 13 29.84 1011 1 1 0.01 0.25
2:55 am 02:55 Cloudy with Mist and Fog 50 10 50 10 100 100 NNE 8 13 29.85 1011 1 1 0.01 0.25
3:15 am 03:15 Cloudy with Fog 50 10 50 10 100 100 NE 10 17 29.83 1010 1 1 N/A
3:35 am 03:35 Cloudy with Fog 50 10.1 50 10.1 100 100 NE 10 17 29.79 1009 1 1 N/A
3:55 am 03:55 Cloudy with Fog 50 10.2 50 10.2 100 100 NE 7 11 29.79 1009 1 1 N/A
4:15 am 04:15 Cloudy with Drizzle 51 10.3 51 10.3 100 100 NNE 7 11 29.78 1008 1 1 N/A
4:35 am 04:35 Cloudy with Fog 51 10.3 51 10.3 100 100 NNE 7 11 29.77 1008 1 1 N/A
4:55 am 04:55 Cloudy with Fog 51 10.3 51 10.3 100 100 NNE 7 11 29.77 1008 1 1 N/A
5:15 am 05:15 Cloudy with Fog 50 10.2 50 10.2 100 100 NNE 7 11 29.78 1008 1 1 N/A
5:35 am 05:35 Cloudy with Mist and Fog 50 10.2 50 10.2 100 100 NNE 7 11 29.77 1008 1 1 N/A
5:55 am 05:55 Cloudy with Mist and Fog 50 10.2 50 10.2 100 100 NNE 7 11 29.77 1008 1 2 N/A
6:15 am 06:15 Cloudy with Mist and Fog 50 10.2 50 10.2 100 100 NNE 8 13 29.76 1008 2 2 N/A
6:35 am 06:35 Cloudy with Light Rain 50 10.1 50 10.1 100 100 NNE 8 13 29.75 1008 1 2 N/A
6:55 am 06:55 Cloudy with Light Rain 50 10.1 50 10.1 100 100 N 7 11 29.74 1007 2 2 0.01 0.25
7:15 am 07:15 Cloudy with Drizzle 50 10.1 50 10.1 100 100 N 8 13 29.72 1006 5 8 N/A
7:35 am 07:35 Cloudy with Light Rain 50 10.1 50 10.1 100 100 NNE 8 13 29.72 1006 2 3 N/A
7:55 am 07:55 Cloudy with Light Rain 50 10.1 50 10.1 100 100 NNE 8 13 29.72 1006 3 5 0.01 0.25
8:15 am 08:15 Cloudy with Light Rain 50 10.1 50 10.1 100 100 N 8 13 29.72 1006 1 2 N/A
8:35 am 08:35 Cloudy with Light Rain 50 10 50 10 100 100 N 9 15 29.72 1007 2 2 0.01 0.25
8:55 am 08:55 Cloudy with Light Rain 50 10.1 50 10.1 100 100 N 9 15 29.72 1006 4 6 0.01 0.25
9:15 am 09:15 Cloudy with Rain 50 10.1 50 10.1 100 100 N 9 15 29.72 1006 10 16 0.01 0.25
9:35 am 09:35 Cloudy with Light Rain 50 10.1 50 10.1 100 100 N 10 17 29.72 1006 5 8 0.01 0.25
9:55 am 09:55 Cloudy with Light Rain 50 10 50 10 100 100 N 7 11 29.72 1007 7 11 0.02 0.51
10:15 am 10:15 Cloudy with Light Rain 50 10 50 10 100 100 N 12 19 29.72 1007 5 8 0.01 0.25
10:35 am 10:35 Cloudy with Light Rain 50 10 50 10 100 100 N 10 17 29.72 1007 10 16 0.02 0.51
10:55 am 10:55 Cloudy with Rain 50 10.1 50 10.1 100 100 N 13 20 29.72 1006 4 6 0.06 1.52
11:15 am 11:15 Cloudy with Heavy Rain 50 10 50 10 100 100 N 9 15 29.73 1007 3 5 0.06 1.52
11:35 am 11:35 Cloudy with Heavy Rain 50 10 50 10 100 100 NNW 12 19 29.73 1007 4 6 0.14 3.56
11:55 am 11:55 Cloudy with Heavy Rain 50 10.1 50 10.1 100 100 NNW 8 13 29.73 1007 4 6 0.23 5.84
12:15 pm 12:15 Cloudy with Rain 50 10.2 50 10.2 100 100 N 10 17 29.73 1007 5 8 0.04 1.02
12:35 pm 12:35 Cloudy with Light Rain 50 10 50 10 100 100 NNW 14 22 29.73 1007 7 11 0.07 1.78
12:55 pm 12:55 Cloudy with Light Rain 50 10 50 10 100 100 N 14 22 29.72 1007 7 11 0.10 2.54
1:15 pm 13:15 Cloudy with Light Rain 50 10.1 50 10.1 100 100 N 17 28 29.70 1006 5 8 0.01 0.25
1:35 pm 13:35 Cloudy with Light Rain 51 10.3 50 10.1 99 99 N 17 28 29.70 1006 10 16 0.02 0.51
1:55 pm 13:55 Cloudy with Rain 50 10.2 50 9.8 97 97 N 17 28 29.72 1006 10 16 0.03 0.76
2:15 pm 14:15 Cloudy with Light Rain 50 10.2 50 9.8 97 97 N 8 13 29.73 1007 10 16 0.01 0.25
2:35 pm 14:35 Cloudy with Light Rain 51 10.5 50 10.1 97 97 N 14 22 29.72 1006 10 16 0.02 0.51
2:55 pm 14:55 Cloudy with Light Rain 51 10.5 50 10 97 97 N 13 20 29.73 1007 10 16 0.03 0.76
3:15 pm 15:15 Cloudy with Rain 50 10.2 49 9.5 95 95 N 16 26 29.75 1007 10 16 0.01 0.25
3:35 pm 15:35 Cloudy with Light Rain 51 10.3 49 9.5 95 95 N 17 28 29.76 1008 10 16 0.01 0.25
3:55 pm 15:55 Cloudy with Light Rain 50 10.1 49 9.5 96 96 N 20 31 29.76 1008 10 16 0.03 0.76
4:15 pm 16:15 Cloudy with Light Rain 50 10 48 9.1 94 94 N 16 26 29.77 1008 10 16 N/A
4:35 pm 16:35 Cloudy with Light Rain 50 9.8 48 9 95 95 N 16 26 29.78 1009 10 16 0.02 0.51
4:55 pm 16:55 Cloudy with Light Rain 49 9.5 47 8.6 94 94 N 18 30 29.79 1009 10 16 0.03 0.76
5:15 pm 17:15 Cloudy with Light Rain 49 9.2 47 8.3 94 94 N 21 33 29.80 1009 10 16 N/A
5:35 pm 17:35 Cloudy with Light Rain 48 8.7 46 7.9 95 95 N 18 30 29.81 1010 10 16 0.01 0.25
5:55 pm 17:55 Cloudy with Drizzle 48 8.7 46 8 95 95 N 16 26 29.82 1010 10 16 0.01 0.25
6:15 pm 18:15 Cloudy with Light Rain 47 8.6 46 7.8 95 95 N 15 24 29.84 1010 10 16 N/A
6:35 pm 18:35 Cloudy with Drizzle 47 8.3 46 7.5 95 95 N 18 30 29.85 1011 10 16 N/A
6:55 pm 18:55 Cloudy 47 8.4 45 7.1 92 92 N 22 35 29.85 1011 10 16 N/A
7:15 pm 19:15 Mostly Cloudy 46 8 45 7 93 93 N 17 28 29.85 1011 10 16 N/A
7:35 pm 19:35 Cloudy 46 7.8 44 6.6 92 92 N 20 31 29.85 1011 10 16 N/A
7:55 pm 19:55 Cloudy 45 7.2 43 6.1 93 93 N 21 33 29.87 1011 10 16 N/A
8:15 pm 20:15 Cloudy 45 7.1 43 6 93 93 N 22 35 29.88 1012 10 16 N/A
8:35 pm 20:35 Mostly Cloudy 44 6.7 42 5.5 92 92 N 24 39 29.88 1012 10 16 N/A
8:55 pm 20:55 Mostly Cloudy 44 6.5 41 5.1 91 91 N 25 41 29.90 1013 10 16 N/A
9:15 pm 21:15 Cloudy 43 6.3 40 4.4 88 88 N 18 30 29.93 1013 10 16 N/A
9:35 pm 21:35 Cloudy 43 6 40 4.5 90 90 N 20 31 29.94 1014 10 16 N/A
9:55 pm 21:55 Cloudy 43 6 40 4.3 89 89 N 18 30 29.95 1014 10 16 N/A
10:15 pm 22:15 Cloudy 42 5.8 40 4.3 90 90 N 17 28 29.96 1015 10 16 N/A
10:35 pm 22:35 Cloudy 42 5.6 40 4.2 91 91 N 24 39 29.97 1015 10 16 N/A
10:55 pm 22:55 Cloudy 42 5.6 39 3.8 88 88 N 22 35 29.98 1015 10 16 N/A
11:15 pm 23:15 Cloudy 42 5.3 39 4 91 91 N 23 37 29.99 1015 10 16 N/A
11:35 pm 23:35 Cloudy 41 5 38 3.6 91 91 N 17 28 29.99 1016 10 16 N/A
11:55 pm 23:55 Cloudy 41 5 38 3.5 90 90 N 16 26 30.01 1016 10 16 N/A

Powered by AerisWeather